Tracking 31027 objects as of 19-Jul-2025
HD Live streaming from Space Station
objects crossing your sky now

GLOBALSTAR M040

Track GLOBALSTAR M040 now!
10-day predictions
GLOBALSTAR M040 is classified as:


NORAD ID: 25622
Int'l Code: 1999-004B
Perigee: 1,420.5 km
Apogee: 1,423.0 km
Inclination: 52.0 °
Period: 114.1 minutes
Semi major axis: 7792 km
RCS: 2.1681 m2 (large)
Launch date: February 9, 1999
Source: Globalstar (GLOB)
Launch site: TYURATAM MISSILE AND SPACE COMPLEX (TTMTR)
Your satellite tracking list
STARLINK-30103
Track 1 satellite(s)




NASA's NSSDC Master Catalog

Two Line Element Set (TLE):
1 25622U 99004B   25199.60538781 -.00000083  00000-0  11554-3 0  9994
2 25622  51.9936 321.9749 0001591 108.6689 264.4160 12.62012893219224
Source of the keplerian elements: AFSPC